Location: Peterborough
(44.3091°N, 78.3197°W)
Time: 16:21:18
(UTC-04:00)

Transit 2A Rocket - Pass Details

Date: 27 March 2023
Orbit: 584 x 914 km, 66.7° (Epoch: 04 June)

Event Time Altitude Azimuth Distance (km) Brightness Sun altitude
Rises 21:35:51 0° 321° (NW) 3,556 9.6 -21.6°
Reaches altitude 10° 21:38:35 10° 314° (NW) 2,602 8.8 -22.1°
Maximum altitude 21:44:04 37° 249° (WSW) 1,361 6.6 -22.9°
Enters shadow 21:48:13 15° 190° (S) 2,126 7.1 -23.6°
Drops below altitude 10° 21:49:18 10° 185° (S) 2,472 - -23.7°
Sets 21:51:51 0° 176° (S) 3,357 - -24.1°
